Location: Newark
(50.4348°N, 30.5552°E)
Time: 17:51:59
(UTC+00:00)

Altair - Pass Details

Date: 24 January 2020
Orbit: 1502 x 1682 km, 47.2° (Epoch: 22 February)

Event Time Altitude Azimuth Distance (km) Brightness Sun altitude
Rises 06:13:30 0° 212° (SSW) 4,870 10.2 3.1°
Reaches altitude 10° 06:16:54 10° 204° (SSW) 3,903 9.8 3.5°
Maximum altitude 06:25:49 38° 141° (SE) 2,377 9.6 4.7°
Drops below altitude 10° 06:34:48 10° 79° (E) 3,946 10.3 5.8°
Sets 06:38:15 0° 72° (ENE) 4,928 10.6 6.2°
